Flag for Germany Weather past 2 weeks in Melsungen, Hesse, Germany

Now
52 °F

Scattered clouds.


Feels Like: 48 °F
Forecast: 36 / 41 °F
Wind: 14 mph from West

Location: Fritzlar

Current Time: Mar 31, 2015 at 2:50:18 PM

Latest Report: Mar 31, 2015 at 2:00 PM


Visibility: 19 mi

Pressure: 29.41 "Hg

Humidity: 58%

Dew point: 38 °F

Location of MelsungenLocation

Historic Weather in Melsungen — Graph

°F

Melsungen temperature yesterday

Maximum temperature yesterday: 47 °F (at 12:00 AM)
Minimum temperature yesterday: 37 °F (at 10:00 PM)
Average temperature yesterday: 44 °F

Past Weeks' High & Low Weather Summary

 TemperatureHumidityPressure
High64 °F (Mar 25, 4:00 PM)98% (Mar 20, 8:00 AM)30.36 "Hg (Mar 20, 8:00 AM)
Low26 °F (Mar 23, 6:00 AM)40% (Mar 25, 3:00 PM)29.23 "Hg (Mar 31, 7:00 AM)
Average43 °F76%29.99 "Hg
* Reported Mar 16 12:00 Noon — Mar 31 1:00 PM, Melsungen, Weather by CustomWeather, © 2015

Note: Actual official high and low records may vary slightly from our data, if they occured in-between our weather recording intervals... More about our weather records

Advertising

Melsungen weather history for previous 24 hours

 ConditionsComfort  
Time TempWeatherWind HumidityBarometerVisibility
1:00 PM
Tue, Mar 31
51 °FSprinkles. Overcast.12 mph64%29.38 "Hg19 mi
12:00 PM49 °FScattered clouds.14 mph67%29.38 "Hg19 mi
11:00 AM47 °FSprinkles. Partly sunny.12 mph72%29.35 "Hg9 mi
10:00 AM51 °FOvercast.10 mph76%29.26 "Hg12 mi
9:00 AM52 °FLight rain. Overcast.13 mph77%29.23 "Hg12 mi
8:00 AM51 °FOvercast.9 mph84%29.23 "Hg12 mi
7:00 AM48 °FRain. Overcast.8 mph88%29.23 "Hg5 mi
6:00 AM42 °FLight rain. Low clouds.7 mph91%29.26 "Hg6 mi
5:00 AM40 °FRain. Low clouds.8 mph92%29.38 "Hg6 mi
4:00 AM38 °FRain. Low clouds.6 mph90%29.47 "Hg6 mi
3:00 AM38 °FLight rain. Overcast.6 mph88%29.59 "Hg9 mi
2:00 AM40 °FLight rain. Overcast.5 mph68%29.67 "Hg16 mi
1:00 AM40 °FOvercast.8 mph63%29.73 "Hg19 mi
12:00 AM38 °FOvercast.3 mph68%29.80 "Hg25 mi
10:00 PM
Mon, Mar 30
37 °FPassing clouds.5 mph69%29.85 "Hg25 mi
9:00 PM40 °FPassing clouds.5 mph60%29.84 "Hg25 mi
8:00 PM41 °FPassing clouds.5 mph64%29.82 "Hg31 mi
7:00 PM44 °FPartly sunny.9 mph60%29.80 "Hg31 mi
6:00 PM45 °FScattered clouds.10 mph61%29.75 "Hg31 mi
5:00 PM43 °FPartly sunny.10 mph71%29.73 "Hg25 mi
4:00 PM41 °FSprinkles. Overcast.9 mph77%29.72 "Hg3 mi
3:00 PM42 °FRain showers. Overcast.9 mph75%29.69 "Hg3 mi
2:00 PM47 °FSprinkles. Overcast.10 mph49%29.62 "Hg31 mi
Weather by CustomWeather, © 2015

See weather overviewHow to use our weather pages